QPF
0.00 0.00 0.00 0.00 0.00 0.00 0.00 0.00 0.00 0.00 0.00 0.00 0.00 0.00 0.00 0.00 0.00 0.00 0.00 0.00 0.00 0.00 0.00 0.00 0.00 0.00 0.00 0.00 0.00 0.00 0.00 0.00 0.01 0.05 0.08 0.04 0.01 0.03 0.01 0.01 0.04 0.05 0.00
0.00 0.00 0.00 0.00 0.00 0.00 0.00 0.00 0.00 0.00 0.00 0.00 0.00 0.00 0.00 0.00 0.00 0.00 0.00 0.00 0.00 0.00 0.00 0.00 0.00 0.00 0.00 0.00 0.00 0.00 0.00 0.00 0.01 0.03 0.17 0.09 0.02 0.08 0.01 0.01 0.02 0.06 0.00
0.00 0.00 0.00 0.00 0.00 0.00 0.00 0.00 0.00 0.00 0.00 0.00 0.00 0.00 0.00 0.00 0.00 0.00 0.00 0.00 0.00 0.00 0.00 0.00 0.00 0.00 0.00 0.00 0.00 0.00 0.00 0.00 0.01 0.01 0.11 0.09 0.06 0.07 0.00 0.00 0.00 0.03 0.00
0.00 0.00 0.00 0.00 0.00 0.00 0.00 0.00 0.00 0.00 0.00 0.00 0.00 0.00 0.00 0.00 0.00 0.00 0.00 0.00 0.00 0.00 0.00 0.00 0.00 0.00 0.00 0.00 0.00 0.00 0.00 0.00 0.01 0.02 0.11 0.04 0.13 0.08 0.01 0.00 0.00 0.01 0.00
0.00 0.00 0.00 0.00 0.00 0.00 0.00 0.00 0.00 0.00 0.00 0.00 0.00 0.00 0.00 0.00 0.00 0.00 0.00 0.00 0.00 0.00 0.00 0.00 0.00 0.00 0.00 0.00 0.00 0.00 0.00 0.00 0.01 0.02 0.13 0.07 0.12 0.03 0.02 0.02 0.01 0.00 0.00
0.00 0.00 0.00 0.00 0.00 0.00 0.00 0.00 0.00 0.00 0.00 0.00 0.00 0.00 0.00 0.00 0.00 0.00 0.00 0.00 0.00 0.00 0.00 0.00 0.00 0.00 0.00 0.00 0.00 0.00 0.00 0.00 0.00 0.02 0.09 0.11 0.07 0.02 0.03 0.06 0.02 0.00 0.00
0.00 0.00 0.00 0.00 0.00 0.00 0.00 0.00 0.00 0.00 0.00 0.00 0.00 0.00 0.00 0.00 0.00 0.00 0.00 0.00 0.00 0.00 0.00 0.00 0.00 0.00 0.00 0.00 0.00 0.00 0.00 0.00 0.00 0.04 0.11 0.06 0.03 0.04 0.05 0.07 0.01 0.00 0.00
0.00 0.00 0.00 0.00 0.00 0.00 0.00 0.00 0.00 0.00 0.00 0.00 0.00 0.00 0.00 0.00 0.00 0.00 0.00 0.00 0.00 0.00 0.00 0.00 0.00 0.00 0.00 0.00 0.00 0.00 0.00 0.00 0.00 0.06 0.13 0.06 0.01 0.06 0.13 0.13 0.03 0.00 0.00
0.00 0.00 0.00 0.00 0.00 0.00 0.00 0.00 0.00 0.00 0.00 0.00 0.00 0.00 0.00 0.00 0.00 0.00 0.00 0.00 0.00 0.00 0.00 0.00 0.00 0.00 0.00 0.00 0.00 0.00 0.00 0.00 0.01 0.13 0.13 0.06 0.01 0.06 0.20 0.16 0.03 0.00 0.00
0.00 0.00 0.00 0.00 0.00 0.00 0.00 0.00 0.00 0.00 0.00 0.00 0.00 0.00 0.00 0.00 0.00 0.00 0.00 0.00 0.00 0.00 0.00 0.00 0.00 0.00 0.00 0.00 0.00 0.00 0.00 0.01 0.02 0.14 0.13 0.05 0.02 0.06 0.15 0.12 0.03 0.00 0.00
0.00 0.00 0.00 0.00 0.00 0.00 0.00 0.00 0.00 0.00 0.00 0.00 0.00 0.00 0.00 0.00 0.00 0.00 0.00 0.00 0.00 0.00 0.00 0.00 0.00 0.00 0.00 0.00 0.00 0.00 0.00 0.02 0.02 0.09 0.19 0.03 0.02 0.07 0.06 0.04 0.01 0.00 0.00
0.00 0.00 0.00 0.00 0.00 0.00 0.00 0.00 0.00 0.00 0.00 0.01 0.01 0.00 0.00 0.00 0.00 0.00 0.00 0.00 0.00 0.00 0.00 0.00 0.00 0.00 0.00 0.00 0.00 0.00 0.00 0.01 0.03 0.04 0.08 0.02 0.03 0.06 0.05 0.00 0.00 0.00 0.00
0.00 0.00 0.00 0.00 0.00 0.00 0.00 0.00 0.01 0.02 0.02 0.03 0.03 0.02 0.01 0.00 0.00 0.00 0.00 0.00 0.00 0.00 0.00 0.00 0.00 0.00 0.00 0.00 0.00 0.00 0.00 0.01 0.03 0.11 0.06 0.03 0.06 0.05 0.04 0.00 0.00 0.00 0.00
0.00 0.00 0.00 0.00 0.00 0.00 0.00 0.01 0.02 0.02 0.02 0.02 0.01 0.01 0.01 0.00 0.00 0.00 0.00 0.00 0.00 0.00 0.00 0.00 0.00 0.00 0.00 0.00 0.00 0.00 0.00 0.00 0.04 0.16 0.04 0.07 0.13 0.05 0.03 0.00 0.00 0.00 0.00
0.00 0.00 0.00 0.00 0.00 0.00 0.01 0.01 0.02 0.02 0.02 0.02 0.03 0.03 0.01 0.01 0.00 0.00 0.00 0.00 0.00 0.00 0.00 0.00 0.00 0.00 0.00 0.00 0.00 0.00 0.00 0.00 0.05 0.17 0.05 0.06 0.15 0.07 0.01 0.00 0.00 0.00 0.00
0.00 0.00 0.00 0.00 0.01 0.04 0.04 0.03 0.03 0.03 0.02 0.01 0.01 0.04 0.03 0.01 0.00 0.00 0.00 0.00 0.00 0.00 0.00 0.00 0.00 0.00 0.00 0.00 0.00 0.00 0.00 0.00 0.10 0.16 0.08 0.04 0.12 0.06 0.00 0.00 0.00 0.00 0.00
0.00 0.00 0.00 0.01 0.06 0.10 0.06 0.06 0.09 0.06 0.03 0.02 0.02 0.01 0.01 0.01 0.00 0.00 0.00 0.00 0.00 0.00 0.00 0.00 0.00 0.00 0.00 0.00 0.00 0.00 0.00 0.00 0.16 0.13 0.08 0.03 0.09 0.04 0.00 0.00 0.00 0.00 0.00
0.00 0.00 0.02 0.03 0.05 0.14 0.10 0.11 0.09 0.06 0.05 0.02 0.02 0.02 0.01 0.01 0.00 0.00 0.00 0.00 0.00 0.00 0.00 0.00 0.00 0.00 0.00 0.00 0.00 0.00 0.00 0.01 0.19 0.13 0.09 0.04 0.07 0.02 0.00 0.00 0.00 0.00 0.00
0.00 0.00 0.02 0.06 0.10 0.13 0.11 0.10 0.06 0.06 0.05 0.03 0.03 0.01 0.00 0.01 0.00 0.00 0.00 0.00 0.00 0.00 0.00 0.00 0.00 0.00 0.00 0.00 0.00 0.00 0.00 0.04 0.24 0.14 0.11 0.09 0.07 0.00 0.00 0.00 0.00 0.00 0.00
0.01 0.01 0.02 0.11 0.19 0.19 0.14 0.07 0.04 0.05 0.05 0.05 0.04 0.02 0.01 0.00 0.00 0.00 0.00 0.00 0.00 0.00 0.00 0.00 0.00 0.00 0.00 0.00 0.01 0.00 0.01 0.10 0.22 0.15 0.13 0.16 0.08 0.02 0.00 0.00 0.00 0.00 0.00
0.00 0.01 0.02 0.08 0.18 0.30 0.24 0.12 0.09 0.05 0.05 0.06 0.07 0.05 0.02 0.01 0.00 0.00 0.00 0.00 0.00 0.00 0.00 0.00 0.00 0.00 0.00 0.01 0.01 0.00 0.01 0.16 0.32 0.23 0.24 0.27 0.12 0.05 0.02 0.01 0.00 0.00 0.00
0.00 0.01 0.02 0.05 0.11 0.26 0.34 0.24 0.16 0.09 0.04 0.04 0.02 0.02 0.01 0.01 0.00 0.00 0.00 0.00 0.00 0.00 0.00 0.00 0.00 0.00 0.00 0.00 0.00 0.02 0.04 0.27 0.55 0.37 0.35 0.33 0.09 0.05 0.09 0.01 0.00 0.00 0.00
0.00 0.01 0.02 0.04 0.12 0.25 0.31 0.27 0.20 0.12 0.08 0.04 0.01 0.00 0.01 0.00 0.00 0.00 0.00 0.00 0.00 0.00 0.00 0.00 0.00 0.00 0.00 0.00 0.01 0.04 0.22 0.36 0.38 0.43 0.12 0.13 0.03 0.05 0.09 0.04 0.01 0.00 0.00
0.03 0.03 0.05 0.04 0.12 0.25 0.32 0.26 0.19 0.16 0.12 0.06 0.02 0.00 0.00 0.00 0.00 0.00 0.00 0.00 0.00 0.00 0.00 0.00 0.00 0.00 0.00 0.00 0.02 0.18 0.40 0.17 0.29 0.18 0.03 0.04 0.02 0.10 0.09 0.03 0.04 0.01 0.00
0.05 0.03 0.06 0.08 0.12 0.29 0.33 0.27 0.18 0.13 0.08 0.06 0.02 0.01 0.00 0.00 0.00 0.00 0.00 0.00 0.00 0.00 0.00 0.00 0.00 0.00 0.01 0.04 0.09 0.25 0.17 0.10 0.35 0.20 0.04 0.01 0.10 0.08 0.03 0.01 0.05 0.06 0.03
0.04 0.01 0.01 0.08 0.10 0.21 0.36 0.32 0.22 0.13 0.09 0.08 0.06 0.02 0.01 0.00 0.00 0.00 0.00 0.00 0.00 0.00 0.00 0.00 0.02 0.04 0.04 0.06 0.16 0.08 0.05 0.07 0.16 0.09 0.02 0.02 0.09 0.02 0.03 0.02 0.00 0.03 0.03
MSLP
1022.00 1022.00 1021.97 1021.89 1021.90 1021.83 1021.78 1021.58 1021.41 1021.22 1021.37 1021.46 1021.31 1021.21 1021.02 1020.86 1020.65 1020.44 1020.20 1019.62 1019.16 1018.88 1018.49 1018.20 1018.29 1018.41 1018.44 1018.42 1018.45 1018.33 1018.15 1017.97 1017.84 1017.57 1017.16 1017.67 1018.24 1018.75 1019.22 1019.89 1020.27 1021.05 1021.59
1021.64 1021.76 1021.76 1021.68 1021.72 1021.68 1021.62 1021.58 1021.39 1021.42 1021.44 1021.35 1021.30 1021.13 1020.98 1020.79 1020.59 1020.38 1020.11 1019.80 1019.31 1018.90 1018.52 1018.15 1018.01 1018.08 1018.10 1018.13 1018.17 1018.11 1018.05 1017.98 1017.91 1017.65 1017.41 1017.67 1018.19 1018.74 1019.34 1020.00 1020.50 1021.09 1021.83
1021.22 1021.32 1021.38 1021.34 1021.29 1021.28 1021.29 1021.34 1021.26 1021.34 1021.44 1021.26 1021.23 1021.02 1020.75 1020.55 1020.37 1020.21 1020.02 1019.72 1019.35 1018.92 1018.53 1017.93 1017.75 1017.72 1017.84 1017.92 1017.93 1017.93 1017.93 1017.86 1017.78 1017.63 1017.58 1017.60 1018.13 1018.71 1019.38 1020.05 1020.60 1021.19 1021.90
1020.64 1020.85 1020.98 1020.92 1020.86 1020.96 1021.06 1021.17 1021.23 1021.37 1021.33 1021.19 1021.09 1020.95 1020.75 1020.39 1020.12 1019.90 1019.71 1019.41 1019.14 1018.88 1018.45 1017.93 1017.64 1017.34 1017.48 1017.73 1017.81 1017.76 1017.74 1017.68 1017.63 1017.67 1017.61 1017.60 1018.10 1018.69 1019.36 1020.12 1020.67 1021.48 1022.16
1020.31 1020.56 1020.56 1020.46 1020.50 1020.58 1020.68 1020.82 1021.10 1021.14 1021.11 1020.99 1020.76 1020.52 1020.32 1020.08 1019.73 1019.25 1019.14 1019.00 1018.73 1018.48 1018.26 1017.90 1017.55 1017.22 1017.28 1017.52 1017.66 1017.64 1017.53 1017.43 1017.46 1017.44 1017.32 1017.25 1017.94 1018.62 1019.35 1020.19 1020.78 1021.64 1022.31
1020.26 1020.25 1020.10 1020.08 1020.11 1020.26 1020.35 1020.43 1020.58 1020.69 1020.61 1020.55 1020.27 1020.11 1019.86 1019.44 1019.11 1018.96 1018.60 1018.42 1018.26 1018.02 1017.86 1017.73 1017.52 1017.36 1017.19 1017.35 1017.48 1017.51 1017.42 1017.25 1017.25 1017.23 1017.18 1016.92 1017.77 1018.67 1019.50 1020.31 1021.05 1022.05 1022.55
1019.84 1019.89 1019.87 1019.76 1019.67 1019.80 1019.77 1019.87 1020.07 1020.32 1020.46 1020.42 1020.60 1020.27 1019.68 1018.88 1018.58 1018.44 1018.10 1017.90 1017.90 1017.59 1017.52 1017.39 1017.37 1017.23 1017.21 1017.18 1017.34 1017.33 1017.31 1017.19 1017.05 1017.05 1016.50 1016.90 1017.73 1018.64 1019.58 1020.40 1021.22 1022.23 1022.79
1019.66 1019.43 1019.40 1019.42 1019.29 1019.38 1019.40 1019.48 1019.70 1019.99 1020.13 1020.22 1020.64 1020.96 1020.41 1019.20 1018.49 1018.05 1017.62 1017.51 1017.62 1017.40 1017.21 1017.08 1017.03 1016.95 1017.09 1017.26 1017.31 1017.19 1017.18 1017.12 1016.99 1016.90 1016.73 1016.93 1017.81 1018.77 1019.60 1020.40 1021.44 1022.32 1022.98
1019.44 1019.15 1018.88 1018.81 1018.80 1018.88 1018.96 1018.92 1018.97 1019.31 1019.63 1019.81 1019.74 1020.38 1020.61 1020.30 1019.67 1018.29 1017.82 1017.56 1017.37 1017.04 1016.84 1016.78 1016.62 1016.72 1016.88 1017.06 1017.08 1017.03 1017.11 1017.11 1017.01 1016.86 1016.34 1016.89 1017.90 1018.78 1019.67 1020.67 1021.74 1022.43 1023.24
1019.01 1018.62 1018.41 1018.31 1018.24 1018.14 1018.07 1017.98 1017.94 1018.15 1018.51 1019.14 1019.49 1019.45 1019.60 1019.89 1020.23 1019.53 1018.13 1017.76 1017.44 1017.24 1017.16 1016.96 1016.61 1016.56 1016.69 1016.80 1016.81 1016.87 1017.01 1017.06 1017.00 1016.91 1016.07 1017.06 1018.01 1019.10 1019.75 1020.84 1021.79 1022.76 1023.56
1018.59 1018.22 1017.75 1017.55 1017.56 1017.35 1017.11 1017.07 1017.18 1017.27 1017.42 1017.77 1018.29 1018.86 1019.27 1019.45 1019.68 1019.96 1019.20 1018.30 1017.66 1017.46 1017.37 1017.13 1016.94 1016.81 1016.61 1016.67 1016.81 1016.82 1016.92 1017.06 1017.24 1017.61 1016.40 1017.14 1018.22 1019.30 1020.29 1021.02 1021.91 1022.96 1023.68
1017.85 1017.28 1016.83 1016.46 1016.34 1016.21 1016.23 1016.31 1016.56 1016.75 1017.00 1017.15 1017.32 1017.52 1017.89 1018.63 1018.78 1019.02 1019.27 1018.95 1018.76 1017.90 1017.45 1017.26 1017.15 1017.01 1016.82 1016.76 1016.63 1016.80 1016.93 1017.27 1017.57 1017.28 1017.39 1017.19 1018.42 1019.50 1020.40 1021.32 1022.03 1023.04 1023.91
1017.37 1016.75 1016.41 1016.35 1016.19 1016.23 1016.08 1015.69 1015.68 1015.72 1015.75 1015.68 1015.97 1016.36 1016.75 1017.26 1017.74 1018.18 1018.56 1018.87 1018.95 1018.59 1017.92 1017.44 1017.29 1017.04 1016.81 1016.79 1016.87 1016.95 1017.05 1017.18 1017.36 1017.58 1017.33 1017.62 1018.60 1019.48 1020.52 1021.36 1022.16 1023.09 1024.18
1016.62 1015.90 1015.80 1015.60 1014.95 1014.71 1014.63 1014.57 1014.27 1014.34 1014.47 1014.54 1015.11 1015.56 1015.87 1016.26 1016.82 1017.40 1017.69 1018.43 1019.00 1018.96 1018.65 1018.04 1017.44 1017.15 1017.06 1016.96 1017.01 1017.22 1017.34 1017.91 1018.20 1018.22 1017.71 1018.11 1018.83 1019.68 1020.49 1021.64 1022.38 1023.42 1024.37
1015.81 1015.47 1015.28 1014.83 1014.23 1013.87 1013.87 1013.61 1013.66 1013.64 1013.52 1013.62 1014.00 1014.56 1014.97 1015.38 1015.98 1016.65 1017.14 1017.54 1018.19 1018.71 1018.67 1018.17 1017.88 1017.34 1017.17 1017.09 1017.13 1017.47 1017.72 1017.78 1018.00 1018.43 1018.42 1018.61 1019.32 1019.96 1021.13 1022.10 1022.92 1023.83 1024.62
1015.38 1014.86 1014.69 1014.32 1013.75 1013.22 1012.98 1012.64 1012.66 1012.75 1012.83 1013.00 1013.21 1013.66 1014.03 1014.59 1015.21 1015.95 1016.56 1017.07 1017.62 1018.29 1018.56 1018.20 1017.92 1017.65 1017.32 1017.11 1017.17 1017.59 1017.87 1018.07 1017.86 1019.02 1018.65 1019.09 1019.75 1020.35 1021.62 1022.67 1023.39 1024.18 1024.83
1015.08 1014.74 1014.20 1013.71 1012.83 1012.31 1012.06 1011.80 1011.67 1011.66 1011.74 1011.94 1012.31 1012.77 1013.14 1013.62 1014.54 1015.32 1016.09 1016.71 1017.32 1017.93 1018.39 1018.20 1017.93 1017.77 1017.60 1017.56 1017.48 1017.86 1018.28 1018.44 1018.90 1019.01 1019.24 1019.61 1020.13 1020.78 1021.97 1023.06 1023.85 1024.60 1025.15
1014.93 1014.24 1013.78 1012.96 1012.28 1011.60 1011.29 1010.90 1010.59 1010.43 1010.48 1010.81 1011.14 1011.80 1012.41 1013.12 1013.95 1014.71 1015.62 1016.28 1017.05 1017.63 1018.12 1018.27 1018.24 1018.04 1017.82 1017.63 1017.74 1018.09 1018.53 1018.87 1019.25 1019.32 1019.88 1019.91 1020.45 1021.22 1022.40 1023.38 1024.34 1025.01 1025.55
1014.62 1014.01 1013.23 1012.27 1011.34 1010.72 1010.27 1009.78 1009.53 1009.36 1009.37 1009.66 1010.12 1010.72 1011.57 1012.33 1013.30 1014.20 1015.09 1015.94 1016.77 1017.35 1017.90 1018.26 1018.48 1018.23 1017.96 1017.69 1017.93 1018.25 1018.83 1019.21 1019.30 1019.76 1020.44 1020.13 1020.76 1021.94 1022.83 1023.89 1024.86 1025.32 1026.12
1014.60 1013.82 1013.02 1011.83 1010.51 1009.66 1009.40 1008.88 1008.58 1008.33 1008.33 1008.51 1009.06 1009.71 1010.52 1011.42 1012.48 1013.56 1014.58 1015.52 1016.41 1017.11 1017.80 1018.18 1018.35 1018.34 1018.03 1017.64 1017.84 1018.37 1019.06 1019.11 1019.22 1019.75 1019.98 1020.52 1021.60 1022.56 1023.64 1024.57 1025.40 1026.00 1026.89
1014.52 1013.60 1012.89 1011.45 1010.19 1009.46 1008.88 1008.23 1007.82 1007.48 1007.32 1007.37 1007.88 1008.79 1009.75 1010.79 1011.94 1013.08 1014.16 1015.09 1015.93 1016.75 1017.55 1018.06 1018.31 1018.16 1017.81 1017.55 1017.74 1018.43 1018.70 1018.84 1019.99 1019.67 1020.20 1021.59 1022.50 1023.72 1024.76 1025.35 1026.14 1026.87 1027.55
1014.48 1013.64 1012.70 1011.35 1010.16 1009.44 1008.47 1007.74 1007.27 1006.98 1006.72 1006.66 1006.86 1007.70 1009.10 1010.49 1011.78 1013.04 1014.12 1015.16 1015.73 1016.47 1017.18 1017.70 1018.06 1017.91 1017.36 1017.46 1017.86 1018.29 1018.22 1018.83 1019.11 1019.30 1021.17 1022.64 1023.48 1025.37 1025.53 1025.98 1026.79 1027.47 1028.18
1014.78 1013.82 1012.95 1011.44 1010.34 1009.45 1008.57 1007.79 1007.35 1006.92 1006.61 1006.71 1007.09 1007.71 1008.93 1010.45 1011.75 1012.99 1014.13 1015.22 1015.96 1016.56 1017.14 1017.45 1017.77 1017.86 1017.39 1017.40 1017.89 1018.26 1018.14 1018.58 1019.38 1021.25 1021.05 1024.26 1025.26 1026.85 1027.29 1027.54 1027.62 1028.05 1028.82
1015.23 1014.19 1013.17 1012.07 1010.85 1009.84 1009.07 1008.20 1007.47 1007.16 1007.02 1007.21 1007.63 1008.36 1009.31 1010.58 1011.92 1013.07 1014.09 1015.08 1015.82 1016.55 1017.02 1017.40 1017.75 1017.59 1017.51 1017.60 1017.69 1017.85 1018.34 1019.61 1020.74 1021.96 1021.61 1025.17 1027.02 1028.30 1028.65 1029.20 1029.30 1029.32 1029.84
1015.61 1014.82 1013.75 1012.75 1011.49 1010.60 1010.03 1008.78 1008.12 1007.65 1007.49 1007.80 1008.46 1009.28 1010.07 1011.12 1012.25 1013.18 1014.04 1015.01 1015.90 1016.48 1016.99 1017.38 1017.62 1017.75 1017.82 1017.73 1017.56 1017.12 1019.34 1019.31 1021.72 1022.77 1023.76 1025.15 1027.99 1029.11 1030.22 1031.22 1031.54 1031.11 1031.05
1016.15 1015.30 1014.44 1013.48 1012.52 1011.69 1010.98 1009.58 1009.16 1008.73 1008.36 1008.65 1009.22 1010.00 1010.82 1011.52 1012.49 1013.38 1014.10 1014.97 1015.80 1016.50 1017.02 1017.86 1018.09 1018.00 1018.27 1018.27 1018.95 1018.83 1019.16 1020.02 1021.92 1023.52 1025.29 1026.13 1028.09 1028.88 1031.61 1033.06 1033.15 1032.81 1032.56
Thickness
5501 5499 5497 5496 5495 5495 5495 5495 5497 5498 5498 5498 5500 5503 5507 5511 5516 5521 5528 5536 5544 5553 5561 5568 5573 5578 5584 5589 5593 5600 5606 5615 5620 5626 5633 5634 5634 5635 5638 5636 5638 5637 5634
5491 5488 5486 5485 5484 5483 5483 5483 5484 5484 5483 5485 5487 5491 5494 5499 5504 5510 5517 5525 5533 5543 5551 5560 5567 5573 5579 5585 5590 5596 5601 5610 5615 5622 5628 5630 5630 5631 5633 5632 5633 5633 5630
5484 5480 5477 5475 5474 5472 5470 5470 5470 5469 5469 5472 5474 5477 5482 5486 5491 5498 5505 5513 5523 5533 5542 5553 5561 5569 5575 5581 5587 5592 5597 5605 5612 5618 5623 5626 5627 5628 5628 5628 5630 5628 5627
5476 5472 5468 5465 5463 5460 5457 5456 5455 5454 5454 5457 5460 5464 5469 5475 5481 5487 5494 5503 5513 5523 5533 5544 5554 5564 5571 5576 5583 5589 5594 5602 5609 5614 5619 5623 5624 5625 5626 5625 5626 5623 5622
5466 5462 5458 5454 5451 5449 5446 5445 5443 5442 5442 5444 5448 5453 5458 5465 5472 5479 5486 5495 5504 5514 5525 5536 5546 5556 5565 5571 5578 5584 5592 5601 5606 5612 5618 5623 5622 5623 5623 5622 5622 5619 5617
5453 5451 5448 5444 5440 5436 5432 5430 5430 5429 5430 5432 5438 5442 5446 5455 5463 5470 5478 5486 5496 5506 5517 5527 5538 5548 5556 5565 5573 5581 5589 5598 5604 5610 5617 5624 5622 5620 5618 5618 5617 5613 5612
5443 5440 5437 5434 5430 5425 5421 5418 5415 5414 5412 5413 5415 5421 5430 5442 5451 5459 5469 5478 5486 5498 5508 5518 5529 5540 5550 5558 5567 5576 5584 5594 5602 5608 5619 5624 5622 5621 5615 5615 5613 5609 5608
5432 5428 5424 5420 5416 5411 5406 5402 5398 5396 5395 5393 5393 5396 5404 5419 5432 5445 5457 5467 5475 5487 5498 5509 5521 5532 5542 5551 5561 5570 5579 5589 5599 5607 5615 5619 5618 5615 5614 5612 5608 5605 5604
5419 5416 5412 5408 5403 5397 5392 5388 5384 5380 5377 5375 5377 5376 5373 5386 5400 5422 5437 5449 5462 5476 5488 5500 5513 5523 5534 5544 5554 5565 5574 5585 5595 5606 5615 5617 5614 5613 5610 5607 5603 5601 5599
5412 5407 5401 5396 5391 5387 5383 5379 5376 5371 5367 5362 5358 5364 5368 5369 5366 5385 5416 5430 5444 5459 5472 5486 5501 5514 5526 5537 5547 5558 5568 5579 5592 5602 5614 5614 5611 5608 5606 5604 5601 5596 5596
5404 5399 5396 5391 5384 5380 5376 5369 5362 5358 5355 5352 5348 5345 5349 5354 5357 5366 5384 5405 5424 5441 5456 5472 5486 5500 5515 5528 5539 5552 5562 5574 5586 5592 5608 5610 5607 5605 5600 5601 5597 5592 5594
5403 5399 5395 5390 5380 5378 5368 5358 5349 5343 5339 5337 5336 5337 5344 5342 5349 5356 5362 5378 5394 5419 5440 5457 5472 5486 5502 5518 5531 5544 5555 5565 5577 5592 5600 5606 5603 5602 5599 5596 5594 5592 5594
5402 5398 5393 5384 5377 5368 5357 5351 5343 5336 5330 5328 5327 5327 5331 5337 5337 5345 5350 5356 5374 5395 5418 5440 5458 5475 5492 5508 5522 5536 5548 5559 5573 5585 5595 5600 5600 5600 5596 5594 5593 5592 5593
5403 5401 5391 5381 5377 5365 5353 5341 5334 5328 5321 5314 5310 5310 5315 5324 5330 5337 5344 5350 5358 5375 5396 5422 5444 5462 5481 5498 5513 5528 5539 5548 5561 5575 5589 5593 5595 5596 5595 5590 5591 5591 5594
5404 5396 5386 5377 5371 5359 5345 5334 5322 5313 5308 5301 5295 5290 5298 5310 5319 5328 5336 5346 5354 5363 5382 5406 5426 5449 5470 5488 5505 5520 5532 5546 5559 5569 5581 5587 5589 5591 5588 5586 5588 5589 5593
5402 5394 5384 5375 5365 5353 5337 5328 5315 5303 5294 5286 5281 5281 5286 5296 5309 5320 5329 5339 5350 5358 5372 5392 5413 5435 5458 5479 5498 5514 5528 5542 5558 5562 5576 5581 5584 5587 5583 5580 5584 5588 5593
5400 5390 5383 5373 5365 5351 5336 5326 5313 5300 5287 5279 5273 5273 5280 5287 5299 5313 5323 5334 5344 5356 5366 5382 5404 5427 5450 5470 5491 5508 5522 5538 5549 5562 5568 5575 5580 5581 5579 5577 5581 5585 5590
5401 5393 5381 5375 5364 5350 5337 5324 5315 5301 5286 5277 5272 5270 5275 5281 5294 5308 5318 5331 5341 5353 5363 5377 5397 5420 5441 5465 5486 5504 5518 5533 5544 5556 5564 5572 5578 5579 5575 5578 5578 5583 5586
5403 5394 5382 5376 5369 5356 5341 5329 5317 5302 5291 5281 5273 5273 5278 5287 5296 5307 5318 5329 5339 5351 5362 5374 5392 5414 5437 5461 5482 5500 5515 5530 5541 5553 5559 5571 5576 5571 5573 5574 5575 5581 5582
5405 5395 5384 5379 5376 5365 5350 5336 5322 5309 5299 5290 5281 5279 5285 5296 5305 5312 5321 5330 5340 5353 5364 5376 5393 5412 5438 5462 5483 5502 5515 5531 5543 5550 5561 5567 5567 5567 5568 5570 5572 5574 5576
5408 5401 5390 5385 5383 5371 5357 5344 5329 5319 5311 5306 5297 5289 5291 5302 5311 5319 5327 5336 5347 5360 5370 5382 5396 5417 5444 5467 5489 5504 5519 5533 5537 5551 5558 5557 5558 5556 5558 5564 5566 5567 5569
5413 5406 5397 5394 5391 5379 5364 5350 5339 5328 5325 5322 5318 5311 5305 5309 5319 5326 5333 5342 5355 5369 5380 5392 5405 5429 5456 5473 5490 5506 5524 5530 5544 5552 5548 5546 5552 5546 5552 5556 5561 5562 5564
5416 5412 5404 5403 5398 5388 5373 5359 5346 5336 5335 5333 5331 5329 5326 5325 5334 5339 5344 5350 5360 5373 5387 5402 5417 5435 5462 5480 5495 5509 5526 5538 5544 5540 5555 5537 5540 5539 5544 5549 5554 5558 5560
5418 5414 5410 5406 5403 5396 5386 5374 5360 5348 5344 5343 5343 5343 5346 5347 5349 5353 5358 5362 5370 5382 5394 5406 5422 5446 5464 5482 5500 5519 5529 5532 5537 5539 5552 5533 5527 5529 5535 5540 5546 5552 5555
5422 5417 5415 5413 5410 5404 5396 5392 5381 5368 5362 5357 5355 5352 5358 5362 5365 5368 5373 5376 5382 5393 5403 5416 5433 5452 5472 5490 5508 5528 5526 5541 5530 5532 5534 5543 5526 5527 5527 5530 5534 5545 5556
5425 5423 5421 5420 5414 5411 5406 5408 5401 5387 5381 5374 5368 5368 5372 5379 5380 5383 5388 5393 5399 5406 5416 5426 5443 5465 5479 5499 5510 5526 5538 5542 5540 5538 5531 5533 5530 5534 5522 5520 5529 5543 5553